[[{"header":{"parameterUnit":"m.s-1","parameterCategory":1,"la1":30.2991,"la2":30.254,"lo1":-89.0895,"lo2":-89.0444,"dy":0.0017,"dx":0.0017,"nx":28,"ny":28,"refTime":"2024-07-15T21:00:00:Z","depth":0,"parameterNumber":2,"parameterNumberName":"U-component_of_WINDS"},"data":[0,0,0,0,0,0,0,0,0,0,0,0,0,0,0,0,0,0,0,0,0,0,0,0,0,0,0,0,0,0,0,0,0,0,0,0,0,0,0,0,0,0,0,0,0,0,0,0,0,0,0,0,0,0,0,0,0,0,3.9497,3.9499,0,3.9638,3.964,3.9642,3.9599,3.9596,3.9593,3.9591,3.974,3.9747,3.9754,0,0,0,0,0,0,0,0,0,0,0,0,0,3.9194,3.92,3.9497,3.9499,3.9501,3.9638,3.964,3.9642,3.96,3.9596,3.9593,3.9589,3.9738,3.9746,3.9754,0,0,0,0,0,0,0,0,0,0,0,0,0,3.933,3.9202,3.9497,3.9496,3.9497,3.9638,3.964,3.9643,3.9601,3.9596,3.9592,3.9588,3.9735,3.9745,3.9755,3.9906,0,0,3.9786,3.9791,0,0,0,0,0,0,0,0,3.9322,3.9341,3.9494,3.9496,3.9498,3.9597,3.9588,3.9731,3.9602,3.9562,3.9591,3.9585,3.9696,3.9709,3.9746,3.9913,3.992,3.9787,3.9793,3.9798,3.98,0,0,0,0,0,0,0,3.9313,3.9334,3.9553,3.9497,3.9499,3.949,3.9504,3.9615,3.9652,3.9565,3.9562,3.9579,3.9697,3.9736,3.9749,3.9922,3.9787,3.9796,3.9802,3.9806,4.0218,4.0223,0,0,0,0,0,0,3.9301,3.9327,3.9549,3.9557,3.9397,3.9499,3.9515,3.957,3.9651,3.9659,3.9583,3.9577,3.9721,3.9737,3.9754,3.9934,3.9797,3.9807,3.9813,4.0213,4.0219,4.0224,0,0,0,0,0,0,3.9295,3.9322,3.9543,3.9441,3.9469,3.9509,3.9571,3.9575,3.9614,3.9664,3.9671,3.9616,3.9718,3.974,3.9868,3.9939,3.9811,3.9821,4.0207,4.0215,4.0222,4.0297,0,0,0,0,0,0,3.9287,3.932,3.9377,3.9443,3.9474,3.9654,3.9575,3.9581,3.9631,3.9624,3.9698,3.9705,3.9716,3.9853,3.9878,3.9951,3.9829,4.0201,4.0211,4.0219,4.0288,4.0306,4.0321,0,0,0,0,0,3.9276,3.9394,3.938,3.9407,3.9547,3.9658,3.9676,3.9685,3.9637,3.9695,3.9727,3.9703,3.9927,3.9866,3.9894,3.9971,4.0197,4.0208,4.0219,4.0281,4.0303,4.0321,0,0,0,0,0,0,3.9338,3.9403,3.9388,3.9531,3.9589,3.965,3.9724,3.9708,3.9782,3.9773,3.9782,3.9799,3.9929,3.9963,3.9894,4.012,4.0055,4.0072,4.0093,4.0114,4.013,4.0119,3.9837,0,0,0,0,0,3.9367,3.9451,3.9504,3.9625,3.9655,3.9684,3.9733,3.9735,3.9796,3.9821,3.9862,3.9924,4.0007,4.0063,4.0143,4.0293,4.0308,4.036,4.0376,4.0389,4.0404,4.0483,4.0507,4.026,4.026,4.026,0,0,3.9431,3.9477,3.953,3.9639,3.9684,3.977,3.9706,3.9801,3.9865,3.9836,3.9958,3.9991,4.006,4.0198,4.0262,4.0231,4.0475,4.0403,4.0413,4.0421,4.0497,4.052,4.0541,4.0268,4.0267,4.0265,0,0,3.959,3.9634,3.9738,3.9784,3.9852,3.987,3.9895,3.9959,3.9979,4.0101,4.008,4.0158,4.0303,4.0352,4.0396,4.0572,4.0552,4.0598,4.0683,4.0761,4.078,4.0797,4.0858,4.088,4.0612,4.0612,4.0613,0,3.966,3.9789,3.9794,3.989,3.9938,3.9913,4.0019,4.0064,4.0156,4.019,4.0153,4.0332,4.0378,4.0527,4.0569,4.0606,4.0635,4.0589,4.0777,4.0794,4.081,4.0868,4.0891,4.0617,4.0617,4.0616,4.0616,0,3.9871,3.9961,4.0037,4.0123,4.018,4.0281,4.0302,4.0359,4.0355,4.0378,4.0502,4.0555,4.0644,4.068,4.0678,4.0828,4.0806,4.0774,4.0708,4.0838,4.0893,4.0916,4.0625,4.0623,4.0621,4.062,0,0,4.0074,4.016,4.0188,4.0225,4.0298,4.0367,4.0467,4.0552,4.06,4.0664,4.0747,4.0869,4.0838,4.0888,4.0892,4.096,4.1093,4.0919,4.092,4.0948,4.126,4.1283,4.1308,4.1081,4.1085,4.1089,4.1253,0,4.0238,4.041,4.0416,4.0574,4.0656,4.0632,4.0718,4.0772,4.0796,4.087,4.0896,4.0982,4.0935,4.0965,4.1032,4.1063,4.1156,4.1051,4.1158,4.1162,4.114,4.1337,4.1363,4.1515,4.1275,4.1278,4.1281,0,4.0452,4.0519,4.0684,4.0742,4.0777,4.0854,4.0931,4.1002,4.1063,4.1075,4.1129,4.1123,4.1224,4.1156,4.1296,4.1224,4.1269,4.129,4.1297,4.1306,4.1228,4.135,4.1565,4.1587,4.1315,4.1313,4.131,0,4.0581,4.0713,4.0828,4.0862,4.0933,4.0987,4.102,4.1076,4.1126,4.1194,4.1226,4.1307,4.135,4.1413,4.1428,4.1377,4.1567,4.1501,4.158,4.158,4.162,4.1617,4.1843,4.1652,4.1651,4.1651,4.165,0,4.0762,4.0864,4.0886,4.0957,4.107,4.1076,4.1188,4.1217,4.1266,4.1342,4.1328,4.14,4.1416,4.1492,4.1505,4.1617,4.1638,4.1651,4.1653,4.1651,4.1649,4.1679,4.1668,4.1657,4.1656,4.1654,4.1653,0,4.0925,4.0945,4.1068,4.1124,4.1141,4.1221,4.1269,4.1337,4.1358,4.1454,4.1478,4.1511,4.1599,4.162,4.1726,4.1734,4.1867,4.186,4.1845,4.1845,4.1922,4.1914,4.2174,4.2207,4.1995,4.1997,4.1999,0,4.1039,4.1116,4.1179,4.1228,4.1262,4.1341,4.1391,4.1401,4.1454,4.1527,4.1586,4.1671,4.174,4.1881,4.1916,4.1996,4.199,4.2075,4.2002,4.1997,4.1989,4.1983,4.199,4.2089,4.2091,4.2093,4.2095,0,4.1238,4.1243,4.1314,4.1389,4.1448,4.1509,4.1566,4.1607,4.1624,4.1685,4.1772,4.1826,4.1931,4.2016,4.2096,4.2131,4.2116,4.2117,4.214,4.2138,4.2126,4.2131,4.1882,4.2111,4.211,4.2108,4.2107,4.2107,4.1378,4.1444,4.1498,4.1578,4.1622,4.1675,4.174,4.1768,4.1841,4.1926,4.1928,4.2023,4.2081,4.2186,4.2225,4.2301,4.2275,4.2307,4.2315,4.2323,4.2328,4.2115,4.2316,4.2315,4.2315,4.2314,4.2314,0,4.1575,4.1608,4.1681,4.176,4.1822,4.18,4.1862,4.1916,4.1999,4.2053,4.212,4.222,4.2302,4.2342,4.2423,4.2476,4.2471,4.2496,4.2492,4.25,4.2348,4.232,4.2499,4.2499,4.2499,4.2499,4.2499,4.2499,4.1684,4.1794,4.1805,4.1936,4.1969,4.206,4.2097,4.2146,4.2188,4.23,4.2367,4.2391,4.244,4.2523,4.2597,4.2607,4.2637,4.2666,4.2672,4.253,4.2511,4.2493,4.2466,4.2673,4.2673,4.2817,4.2818,4.2819]},{"header":{"parameterUnit":"m.s-1","parameterCategory":1,"la1":30.2991,"la2":30.254,"lo1":-89.0895,"lo2":-89.0444,"dy":0.0017,"dx":0.0017,"nx":28,"ny":28,"refTime":"2024-07-15T21:00:00:Z","depth":0,"parameterNumber":3,"parameterNumberName":"V-component_of_WINDS"},"data":[0,0,0,0,0,0,0,0,0,0,0,0,0,0,0,0,0,0,0,0,0,0,0,0,0,0,0,0,0,0,0,0,0,0,0,0,0,0,0,0,0,0,0,0,0,0,0,0,0,0,0,0,0,0,0,0,0,0,1.0577,1.0576,0,1.0562,1.0561,1.0561,1.053,1.053,1.0529,1.0528,1.0513,1.0513,1.0513,0,0,0,0,0,0,0,0,0,0,0,0,0,1.0577,1.0577,1.0577,1.0576,1.0576,1.0562,1.0561,1.0561,1.053,1.053,1.0529,1.0528,1.0513,1.0513,1.0513,0,0,0,0,0,0,0,0,0,0,0,0,0,1.0571,1.0577,1.0577,1.0559,1.0557,1.0562,1.0561,1.0561,1.053,1.053,1.0529,1.0528,1.0513,1.0513,1.0513,1.0533,0,0,1.0514,1.0514,0,0,0,0,0,0,0,0,1.0571,1.0571,1.0562,1.056,1.0558,1.0547,1.0556,1.0552,1.0531,1.0541,1.0528,1.0527,1.0525,1.0524,1.0523,1.0533,1.0532,1.0514,1.0514,1.0514,1.0514,0,0,0,0,0,0,0,1.0572,1.0571,1.0571,1.0562,1.056,1.0551,1.0549,1.0555,1.0538,1.054,1.0537,1.0536,1.0524,1.0523,1.0523,1.0532,1.0514,1.0514,1.0514,1.0514,1.0554,1.0555,0,0,0,0,0,0,1.0575,1.0572,1.0571,1.057,1.0563,1.0552,1.055,1.0551,1.0538,1.0535,1.0537,1.0535,1.0523,1.0522,1.0522,1.0544,1.0514,1.0514,1.0515,1.0553,1.0555,1.0556,0,0,0,0,0,0,1.0575,1.0575,1.0572,1.057,1.0569,1.0553,1.0555,1.0552,1.0551,1.0536,1.0533,1.054,1.0522,1.0522,1.053,1.0543,1.0515,1.0515,1.0552,1.0554,1.0555,1.0588,0,0,0,0,0,0,1.0575,1.0575,1.0583,1.0571,1.057,1.0581,1.0556,1.0552,1.0552,1.0549,1.0537,1.0535,1.0522,1.053,1.053,1.0542,1.0515,1.0551,1.0553,1.0555,1.0585,1.059,1.0594,0,0,0,0,0,1.0575,1.0594,1.0584,1.0584,1.0579,1.0582,1.0581,1.0566,1.0553,1.056,1.055,1.0535,1.0541,1.0531,1.0531,1.0544,1.055,1.0552,1.0554,1.0584,1.0589,1.0594,0,0,0,0,0,0,1.0609,1.0592,1.0581,1.0596,1.059,1.0577,1.0586,1.0572,1.0571,1.0568,1.0549,1.0546,1.0557,1.0551,1.054,1.0561,1.0543,1.0545,1.0565,1.057,1.0574,1.0576,1.0515,0,0,0,0,0,1.0618,1.0621,1.0606,1.0621,1.0618,1.0603,1.0603,1.0591,1.0585,1.0583,1.0573,1.0568,1.0568,1.0569,1.0568,1.0584,1.058,1.0592,1.0596,1.06,1.0602,1.0609,1.0613,1.0562,1.0562,1.0562,0,0,1.0637,1.0628,1.0631,1.0627,1.0622,1.0625,1.0601,1.0606,1.0608,1.0584,1.0591,1.0584,1.0576,1.0587,1.0592,1.0583,1.0615,1.0603,1.0606,1.0606,1.0611,1.0616,1.062,1.0564,1.0563,1.0563,0,0,1.0673,1.0667,1.0677,1.0672,1.0664,1.0652,1.0655,1.0643,1.0637,1.0644,1.0624,1.0626,1.0628,1.0622,1.062,1.0651,1.0637,1.0652,1.0674,1.068,1.0684,1.0688,1.0698,1.0703,1.0654,1.0654,1.0654,0,1.0697,1.0702,1.0685,1.0691,1.0689,1.0666,1.0676,1.0671,1.0663,1.0662,1.0651,1.0651,1.0644,1.0654,1.0661,1.066,1.0662,1.0653,1.0685,1.0689,1.0692,1.0701,1.0705,1.0656,1.0656,1.0655,1.0655,0,1.0732,1.0736,1.0746,1.0738,1.0737,1.0745,1.0728,1.0729,1.0717,1.0706,1.0713,1.0703,1.07,1.0701,1.069,1.0708,1.0703,1.0689,1.067,1.0699,1.0707,1.0711,1.0658,1.0658,1.0657,1.0657,0,0,1.0791,1.0772,1.0776,1.0771,1.0759,1.0761,1.0767,1.0764,1.0764,1.0759,1.0763,1.0764,1.075,1.0747,1.0735,1.074,1.0764,1.0725,1.0725,1.0733,1.0783,1.0794,1.0799,1.0754,1.0755,1.0755,1.0784,0,1.0824,1.0835,1.0818,1.0832,1.0834,1.081,1.0816,1.0808,1.0798,1.0798,1.0787,1.0787,1.077,1.0768,1.0772,1.0761,1.0774,1.0758,1.0757,1.0758,1.0761,1.0803,1.0815,1.0842,1.0787,1.0788,1.0788,0,1.0865,1.0861,1.0875,1.086,1.0861,1.0866,1.086,1.086,1.0851,1.0843,1.0839,1.0823,1.0827,1.0809,1.0813,1.0802,1.0801,1.0795,1.0795,1.0795,1.0775,1.0804,1.0851,1.0855,1.0794,1.0793,1.0793,0,1.0906,1.0904,1.0911,1.0908,1.0892,1.0895,1.0889,1.0878,1.0876,1.0871,1.0869,1.0864,1.0862,1.0858,1.0841,1.0829,1.0847,1.0827,1.084,1.084,1.0846,1.0846,1.0893,1.0844,1.0844,1.0844,1.0844,0,1.0945,1.0955,1.0929,1.0934,1.0943,1.0923,1.0932,1.0923,1.0913,1.0915,1.0894,1.0896,1.0874,1.0873,1.0859,1.0865,1.0864,1.0857,1.0853,1.0859,1.086,1.0858,1.0856,1.0845,1.0845,1.0845,1.0845,0,1.0993,1.0976,1.0983,1.0966,1.0962,1.0969,1.0954,1.0957,1.0945,1.0947,1.0947,1.0928,1.0925,1.0908,1.0902,1.0892,1.0902,1.0895,1.0906,1.0903,1.0917,1.0916,1.0964,1.0969,1.0918,1.0919,1.0919,0,1.1019,1.1025,1.1009,1.1008,1.1002,1.1002,1.1,1.0979,1.0978,1.0966,1.097,1.0966,1.0962,1.0959,1.0944,1.0939,1.0931,1.0948,1.093,1.0935,1.0931,1.0931,1.0931,1.0952,1.0953,1.0954,1.0954,0,1.1067,1.1058,1.1056,1.105,1.1048,1.1042,1.1035,1.1036,1.1013,1.1012,1.101,1.1006,1.0999,1.0995,1.0987,1.0978,1.0962,1.096,1.0962,1.0968,1.0974,1.0971,1.0916,1.0959,1.0958,1.0958,1.0958,1.0958,1.1104,1.1109,1.1097,1.1094,1.1087,1.1081,1.1082,1.107,1.1067,1.106,1.1048,1.1046,1.1034,1.1021,1.1014,1.1012,1.1003,1.1007,1.1008,1.1009,1.1012,1.0974,1.1011,1.1011,1.1011,1.101,1.101,0,1.1151,1.1142,1.114,1.1131,1.1128,1.1113,1.1104,1.1103,1.1102,1.1092,1.1088,1.1084,1.1079,1.1063,1.1056,1.1058,1.105,1.1056,1.1056,1.1054,1.1021,1.1019,1.1063,1.1063,1.1063,1.1063,1.1063,1.1063,1.1175,1.1181,1.117,1.1171,1.1162,1.116,1.1156,1.115,1.1142,1.1138,1.1134,1.1124,1.1111,1.1103,1.1097,1.1092,1.1091,1.11,1.1093,1.1062,1.1057,1.1052,1.1051,1.11,1.11,1.1126,1.1127,1.1127]}]]